Houghton, MI

9:26 AM EST on January 23, 2018 (GMT -0500)
Houghton County Memorial

Weather History for KCMX - September, 2013

Change the Weather History Date:

Thursday, September 12, 2013

  Actual Average Record
Temperature  
Mean Temperature 54 °F -  
Max Temperature 59 °F 64 °F 87 °F (1976)
Min Temperature 46 °F 47 °F 32 °F (2014)
Degree Days  
Heating Degree Days 11    
Growing Degree Days 4 (Base 50)    
Moisture  
Dew Point 47 °F    
Average Humidity 79    
Maximum Humidity 88    
Minimum Humidity 64    
Precipitation  
Precipitation 0.04 in - - ()
Sea Level Pressure  
Sea Level Pressure 30.10 in    
Wind  
Wind Speed 11 mph (North)    
Max Wind Speed 23 mph    
Max Gust Speed 30 mph    
Visibility 8 miles    
Events Rain    
Averages and records for this station are not official NWS values.
T = Trace of Precipitation, MM = Missing Value Source: NWS Daily Summary

Daily Weather History Graph

Daily Weather History Graph

Search for Another Location

Airport or City:

Trip Planner

Search our weather history database for the weather conditions in past years. The results will help you decide how hot, cold, wet, or windy it might be!

Date:

Astronomy

Sep. 12, 2013 Rise Set
Actual Time 7:27 AM EDT 8:11 PM EDT
Civil Twilight 6:57 AM EDT 8:42 PM EDT
Nautical Twilight 6:20 AM EDT 9:18 PM EDT
Astronomical Twilight 5:41 AM EDT 9:57 PM EDT
Moon 3:21 PM EDT (9/12) No Moon Set
Length of Visible Light 13h 45m
Length of Day
12h 43m
Waxing Crescent, 50% of the Moon is Illuminated
Sep 12
Waxing Crescent
Sep 12
First Quarter
Sep 19
Full
Sep 26
Last Quarter
Oct 4
New

Hourly Weather History & Observations

Time (EDT) Temp. Dew Point Humidity Pressure Visibility Wind Dir Wind Speed Gust Speed Precip Events Conditions
12:53 AM 60.1 °F 54.0 °F 80% 29.95 in 10.0 mi NNW 9.2 mph - 0.00 in Rain Light Rain
1:53 AM 57.9 °F 54.0 °F 87% 29.96 in 10.0 mi NNW 5.8 mph - 0.00 in   Overcast
2:53 AM 57.9 °F 53.1 °F 84% 29.98 in 10.0 mi North 5.8 mph - N/A   Overcast
3:53 AM 55.9 °F 51.1 °F 84% 29.99 in 10.0 mi North 6.9 mph - N/A   Partly Cloudy
4:53 AM 57.9 °F 52.0 °F 81% 30.00 in 10.0 mi North 8.1 mph - N/A   Overcast
5:53 AM 55.9 °F 52.0 °F 87% 30.01 in 10.0 mi North 5.8 mph - N/A   Mostly Cloudy
6:53 AM 55.0 °F 51.1 °F 86% 30.02 in 10.0 mi North 6.9 mph - N/A   Scattered Clouds
7:04 AM 55.4 °F 51.8 °F 88% 30.02 in 10.0 mi North 8.1 mph - N/A   Mostly Cloudy
7:11 AM 55.4 °F 51.8 °F 88% 30.02 in 10.0 mi North 8.1 mph - N/A   Mostly Cloudy
7:53 AM 53.1 °F 48.9 °F 86% 30.04 in 10.0 mi North 8.1 mph - N/A   Partly Cloudy
8:53 AM 55.0 °F 50.0 °F 83% 30.05 in 10.0 mi NNW 6.9 mph - 0.00 in Rain Light Rain
9:53 AM 53.1 °F 48.9 °F 86% 30.07 in 2.5 mi North 12.7 mph 19.6 mph 0.01 in Rain Light Rain
10:05 AM 53.6 °F 50.0 °F 88% 30.07 in 3.0 mi NNW 23.0 mph 29.9 mph 0.00 in Rain Light Rain
10:13 AM 51.8 °F 48.2 °F 88% 30.07 in 2.0 mi North 19.6 mph 29.9 mph 0.01 in   Overcast
10:25 AM 51.8 °F 48.2 °F 88% 30.07 in 3.0 mi North 17.3 mph 24.2 mph 0.01 in Rain Light Rain
10:53 AM 55.0 °F 48.0 °F 77% 30.08 in 10.0 mi NNW 17.3 mph 25.3 mph 0.01 in   Scattered Clouds
11:53 AM 55.9 °F 44.1 °F 64% 30.10 in 10.0 mi North 17.3 mph 25.3 mph N/A   Mostly Cloudy
12:53 PM 55.9 °F 44.1 °F 64% 30.12 in 10.0 mi NNW 17.3 mph 24.2 mph N/A   Scattered Clouds
1:33 PM 55.4 °F 46.4 °F 72% 30.13 in 3.0 mi North 12.7 mph - 0.01 in Rain Light Rain
1:37 PM 51.8 °F 46.4 °F 82% 30.13 in 1.8 mi North 10.4 mph - 0.02 in Rain Light Rain
1:43 PM 53.6 °F 48.2 °F 82% 30.13 in 3.0 mi North 12.7 mph - 0.02 in Rain Light Rain
1:53 PM 52.0 °F 46.9 °F 83% 30.14 in 10.0 mi North 15.0 mph 21.9 mph 0.02 in   Overcast
2:22 PM 53.6 °F 46.4 °F 77% 30.13 in 10.0 mi NNW 12.7 mph 18.4 mph N/A   Overcast
2:33 PM 53.6 °F 46.4 °F 77% 30.13 in 10.0 mi North 15.0 mph 20.7 mph N/A   Overcast
2:53 PM 52.0 °F 46.0 °F 80% 30.14 in 5.0 mi North 13.8 mph - 0.00 in Rain Light Rain
3:53 PM 51.1 °F 45.0 °F 80% 30.15 in 5.0 mi North 15.0 mph 20.7 mph 0.00 in Rain Light Rain
4:06 PM 51.8 °F 46.4 °F 82% 30.14 in 10.0 mi North 10.4 mph - 0.00 in   Overcast
4:15 PM 53.6 °F 46.4 °F 77% 30.14 in 10.0 mi NNW 19.6 mph 24.2 mph 0.00 in   Overcast
4:22 PM 53.6 °F 44.6 °F 72% 30.14 in 10.0 mi North 13.8 mph 24.2 mph 0.00 in   Overcast
4:30 PM 53.6 °F 44.6 °F 72% 30.14 in 10.0 mi North 15.0 mph 21.9 mph 0.00 in   Overcast
4:53 PM 53.1 °F 43.0 °F 69% 30.16 in 10.0 mi North 12.7 mph 20.7 mph 0.00 in   Overcast
5:53 PM 54.0 °F 42.1 °F 64% 30.16 in 10.0 mi North 13.8 mph 20.7 mph N/A   Scattered Clouds
6:53 PM 51.1 °F 41.0 °F 68% 30.17 in 10.0 mi North 12.7 mph - N/A   Partly Cloudy
7:53 PM 51.1 °F 41.0 °F 68% 30.18 in 10.0 mi North 6.9 mph - N/A   Overcast
8:53 PM 50.0 °F 41.0 °F 71% 30.19 in 10.0 mi North 6.9 mph - N/A   Overcast
9:53 PM 50.0 °F 42.1 °F 74% 30.21 in 10.0 mi NNE 8.1 mph 17.3 mph N/A   Overcast
10:53 PM 48.9 °F 41.0 °F 74% 30.21 in 10.0 mi NNE 8.1 mph - N/A   Mostly Cloudy
11:53 PM 46.9 °F 39.0 °F 74% 30.22 in 10.0 mi NNE 6.9 mph - N/A   Clear